Flag for India Weather past 2 weeks in Chandauli, Uttar Pradesh, India

Now
86 °F

Broken clouds.


Feels Like: 99 °F
Forecast: 78 / 81 °F
Wind: 3 mph from West

Location: Varanasi / Babatpur

Current Time: Jul 31, 2015 at 5:21:59 PM

Latest Report: Jul 31, 2015 at 4:00 PM


Visibility: 3 mi

Pressure: 29.56 "Hg

Humidity: 79%

Dew point: 79 °F

Location of ChandauliLocation

Historic Weather in Chandauli — Graph

°F

Chandauli temperature yesterday

Maximum temperature yesterday: 95 °F (at 3:00 PM)
Minimum temperature yesterday: 82 °F (at 5:00 AM)
Average temperature yesterday: 88 °F

Past Weeks' High & Low Weather Summary

 TemperatureHumidityPressure
High99 °F (Jul 27, 4:00 PM)100% (Jul 16, 9:00 PM)29.65 "Hg (Jul 16, 9:00 PM)
Low77 °F (Jul 26, 6:00 AM)45% (Jul 23, 4:00 AM)29.39 "Hg (Jul 19, 4:00 PM)
Average87 °F77%29.54 "Hg
* Reported Jul 16 4:00 PM — Jul 31 4:00 PM, Chandauli, Weather by CustomWeather, © 2015

Note: Actual official high and low records may vary slightly from our data, if they occured in-between our weather recording intervals... More about our weather records

Advertising

Chandauli weather history for previous 24 hours

 ConditionsComfort  
Time TempWeatherWind HumidityBarometerVisibility
4:00 PM
Fri, Jul 31
86 °FBroken clouds.3 mph79%29.56 "Hg3 mi
3:00 PM86 °FBroken clouds.6 mph79%29.56 "Hg3 mi
12:00 PM81 °FLight rain. Broken clouds.6 mph94%29.62 "Hg2 mi
11:00 AM81 °FLight rain. Broken clouds.3 mph94%29.62 "Hg2 mi
10:00 AM81 °FLight rain. Broken clouds.6 mph94%29.62 "Hg2 mi
7:00 AM82 °FBroken clouds.9 mph84%29.53 "Hg2 mi
6:00 AM82 °FBroken clouds.6 mph84%29.53 "Hg2 mi
5:00 AM84 °FPartly cloudy.7 mph84%29.53 "Hg2 mi
4:00 AM84 °FLight rain. Partly cloudy.5 mph84%29.53 "Hg2 mi
12:00 AM86 °FPartly cloudy.No wind79%29.56 "Hg2 mi
11:00 PM
Thu, Jul 30
86 °FPartly cloudy.No wind79%29.56 "Hg2 mi
10:00 PM86 °FPartly cloudy.1 mph66%29.56 "Hg3 mi
9:00 PM86 °FPartly cloudy.2 mph66%29.56 "Hg3 mi
7:00 PM86 °FScattered clouds.7 mph66%29.50 "Hg4 mi
6:00 PM86 °FScattered clouds.12 mph75%29.53 "Hg4 mi
5:00 PM93 °FScattered clouds.6 mph56%29.50 "Hg4 mi
Weather by CustomWeather, © 2015

See weather overviewHow to use our weather pages